Left ArrowRight Arrow

32.19382, -80.73816

Hourly Observations for January 7, 2020

Temp ( °F °C ) Dew Point ( °F °C ) Humidity (%) Winds ( mph kmh ) Pressure ( in mb ) Visibility ( mi km ) Precip ( " mm )
12:15 am 00:15 Clear 52 11 48 9 88 88 SSW 6 9 30.16 1021 10 16 N/A
12:35 am 00:35 Clear 52 11 46 8 82 82 SSW 6 9 30.16 1021 10 16 N/A
12:55 am 00:55 Mostly Clear 50 10 46 8 88 88 SW 5 7 30.16 1021 10 16 N/A
1:15 am 01:15 Mostly Clear 52 11 46 8 82 82 SW 3 6 30.15 1021 10 16 N/A
1:35 am 01:35 Clear 50 10 46 8 88 88 SW 5 7 30.15 1021 10 16 N/A
1:55 am 01:55 Clear 50 10 45 7 82 82 SSW 6 9 30.15 1021 10 16 N/A
2:15 am 02:15 Clear 52 11 45 7 77 77 SW 6 9 30.15 1021 10 16 N/A
2:35 am 02:35 Clear 52 11 45 7 77 77 SW 5 7 30.15 1021 10 16 N/A
2:55 am 02:55 Clear 50 10 45 7 82 82 SW 5 7 30.15 1021 10 16 N/A
3:15 am 03:15 Clear 50 10 45 7 82 82 SW 7 11 30.14 1021 10 16 N/A
3:35 am 03:35 Clear 50 10 45 7 82 82 SW 6 9 30.14 1021 10 16 N/A
3:55 am 03:55 Clear 50 10 45 7 82 82 SW 6 9 30.14 1021 10 16 N/A
4:15 am 04:15 Clear 50 10 45 7 82 82 SW 6 9 30.14 1021 10 16 N/A
4:35 am 04:35 Clear 50 10 43 6 76 76 SW 6 9 30.13 1020 10 16 N/A
4:55 am 04:55 Clear 50 10 43 6 76 76 SW 6 9 30.13 1020 10 16 N/A
5:15 am 05:15 Clear 50 10 43 6 76 76 SW 7 11 30.13 1020 10 16 N/A
5:35 am 05:35 Clear 52 11 43 6 72 72 WSW 9 15 30.12 1020 10 16 N/A
6:50 am 06:50 Partly Cloudy 50 10 43 6 76 76 SSW 7 11 30.11 1020 10 16 N/A
7:50 am 07:50 Partly Cloudy 50 10 43 6 76 76 SSW 7 11 30.11 1020 10 16 N/A
8:50 am 08:50 Sunny 52 11 45 7 77 77 WSW 9 15 30.12 1020 10 16 N/A
9:50 am 09:50 Sunny 55 13 46 8 72 72 WSW 14 22 30.13 1020 10 16 N/A
10:50 am 10:50 Sunny 61 16 48 9 63 63 WSW 12 19 30.11 1020 10 16 N/A
11:50 am 11:50 Sunny 64 18 48 9 56 56 WSW 13 20 30.07 1018 10 16 N/A
12:50 pm 12:50 Mostly Sunny 66 19 48 9 52 52 W 10 17 30.04 1017 10 16 N/A
1:50 pm 13:50 Mostly Cloudy 66 19 50 10 56 56 W 10 17 30.02 1017 10 16 N/A
2:50 pm 14:50 Mostly Sunny 68 20 46 8 46 46 WSW 13 20 30.02 1017 10 16 N/A
3:50 pm 15:50 Sunny 66 19 41 5 40 40 undefined N/A 30.04 1017 10 16 N/A
4:50 pm 16:50 Sunny 64 18 41 5 43 43 W 9 15 30.07 1018 10 16 N/A
5:50 pm 17:50 Clear 61 16 41 5 48 48 W 5 7 30.10 1019 10 16 N/A
6:50 pm 18:50 Clear 57 14 41 5 55 55 W 5 7 30.13 1020 10 16 N/A
7:50 pm 19:50 Clear 55 13 39 4 55 55 W 5 7 30.17 1022 10 16 N/A
8:50 pm 20:50 Clear 57 14 34 1 41 41 W 5 7 30.20 1023 10 16 N/A
8:55 pm 20:55 Clear 55 13 34 1 44 44 VRB 5 7 30.20 1023 10 16 N/A
9:15 pm 21:15 Clear 55 13 32 0 41 41 NW 7 11 30.21 1023 10 16 N/A
9:35 pm 21:35 Clear 55 13 32 0 41 41 VRB 3 6 30.22 1023 10 16 N/A
9:55 pm 21:55 Clear 54 12 32 0 44 44 VRB 5 7 30.23 1024 10 16 N/A
10:15 pm 22:15 Clear 54 12 32 0 44 44 VRB 6 9 30.24 1024 10 16 N/A
10:35 pm 22:35 Clear 54 12 32 0 44 44 VRB 3 6 30.25 1024 10 16 N/A
10:55 pm 22:55 Clear 52 11 32 0 47 47 W 7 11 30.25 1024 10 16 N/A
11:15 pm 23:15 Clear 52 11 30 -1 44 44 VRB 6 9 30.26 1025 10 16 N/A
11:35 pm 23:35 Clear 52 11 30 -1 44 44 VRB 6 9 30.26 1025 10 16 N/A
11:55 pm 23:55 Clear 52 11 30 -1 44 44 Calm 30.26 1025 10 16 N/A

Powered by Vaisala Xweather